National Oceanic Atmosphere Administration National Weather Service Headquarters National Weather Service Headquarters
NOAA logo WFO Anchorage Scalable transition graphic NWS logo
Transition from title bar to navgation bar   Aviation Weather 23 AKDT 
blankspace Home   |   Mobile   |   Social Media   |   Mesonet   |   Surface Map   |   Radar   |   Submit Storm Reports =07 GMT 

LocalForecast by City, St or Zip Code

spacer

Forecasts/Products
  Public
  Forecast Discussion
    - With Glossary
  Aviation
  Marine
  Hydrology(RFC)
  Rivers & Lakes AHPS
  Ice Desk
  TV Weather
  Fire Weather
  Avalanche
  Travel 511
  Graphical
  xml logo RSS Feeds
  Marine FTPMail

spacer

Data
  Mesonet
  Model Graphics
  Local Model
  Observations
  Marine Obs
  Satellite/Radar
  Vent Factor
  Soaring Index
  Weather Links

spacer

Climate
  PAFC Climate
  Interactive Climate
  PAFC Records
  Local
  National
  More

spacer

Outreach
  About Us
  Community Outreach
  Kids' Page
  Tour/Speaker Request
  Weather Classroom
  Social Media

spacer

Reports
  COOP Observers
  Local Storm Reports
  Spotter Page
  Submit a Storm Report

spacer

Miscellaneous
  Archived Alaska Weather Stories
  Student Career Opportunities
  Research Papers

spacer

Print Friendly/
Low Bandwidth

  Public Forecasts
  Marine Forecasts

spacer

Contact Us
  mailto pafcweb

spacer

Facebook Follow the National Weather Service in Alaska on Twitter
USA.gov is the U.S. government's official web portal to all federal, state and local government web resources and services.


 ICAO ID:   AAWU Graphics

Internet access to TAFs and METAR observations is for planning purposes only. We can not guarantee the timeliness of internet products. Before flying please get a formal pilot briefing (1-800-992-7433) and ALWAYS file a Flight Plan!Pilot briefings are provided to licensed aircraft pilots, ONLY! Others may not use the above number to obtain weather information.

Check out the Key to TAFs and METARs for help with decoding the information.

A 12 hour summary of TAFs can be found here.

PAKN TAF
PAKN 190531Z 1906/2006  26005KT P6SM SCT025 BKN035
      TEMPO 1910/1914 BKN025=


METAR PAKN 190654Z 24004KT 10SM SCT028 BKN037 BKN065 11/09 A2914 RMK
 AO2 RAB11E20 SLP866 P0000 T01060094=
METAR PAKN 190654Z 24004KT 10SM SCT028 BKN037 BKN065 11/09 A2914=
METAR PAKN 190554Z 25005KT 10SM SCT028 BKN037 BKN060 11/09 A2912 RMK AO2
     SLP862 60000 T01110094 10150 20111 53014=
METAR PAKN 190554Z 25005KT 10SM SCT028 BKN037 BKN060 11/09 A2912=
METAR PAKN 190454Z 26008KT 10SM SCT028 BKN037 BKN065 11/09 A2911 RMK
 AO2 SLP858 T01110089=
METAR PAKN 190454Z 26008KT 10SM SCT028 BKN037 BKN065 11/09 A2911=
METAR PAKN 190354Z 27010KT 10SM SCT028 BKN037 BKN060 12/09 A2910 RMK
 AO2 SLP852 T01220089=
METAR PAKN 190354Z 27010KT 10SM SCT028 BKN037 BKN060 12/09 A2910=


National Weather Service
Anchorage Forecast Office
6930 Sand Lake Road
Anchorage, Ak 99502
(907) 266-5105 M-F/7-5pm
About Us
Career Opportunities
Glossary
Disclaimer
Privacy Policy
Credits
Alaska Weather Information Line:
1-800-472-0391